GW4198 Weather Reports


time (UTC)temp
C
wind
direction
speed
KPH
gust
KPH
rain 1hr
cm
rain 24hr
cm
rain mn
cm
humidity
%
barometer
mb
20260510142801 19 32 0.0 0.0 0.00 0.00 0.00 79 1016.6
20260510142257 19 100 0.0 0.0 0.00 0.00 0.00 80 1016.5
20260510141755 19 133 0.0 0.0 0.00 0.00 0.00 79 1016.4
20260510141252 18 73 0.0 0.0 0.00 0.00 0.00 81 1016.2
20260510140749 18 293 0.0 0.0 0.00 0.00 0.00 78 1016.2
20260510140244 18 141 0.0 0.0 0.00 0.00 0.00 80 1016.3
20260510135743 18 88 0.0 0.0 0.00 0.00 0.00 80 1016.3
20260510135239 18 70 0.0 0.0 0.00 0.00 0.00 81 1016.1
20260510134737 18 84 0.0 0.0 0.00 0.00 0.00 82 1016.1
20260510134234 18 79 0.0 0.0 0.00 0.00 0.00 83 1016.0
20260510133730 18 81 0.0 0.0 0.00 0.00 0.00 84 1015.7
20260510133226 17 68 0.0 0.0 0.00 0.00 0.00 81 1015.9
20260510132722 17 63 0.0 0.0 0.00 0.00 0.00 82 1015.7
20260510132220 17 103 0.0 0.0 0.00 0.00 0.00 83 1015.6
20260510131716 17 111 0.0 0.0 0.00 0.00 0.00 83 1015.5
20260510131215 17 113 0.0 0.0 0.00 0.00 0.00 83 1015.4
20260510130710 17 113 0.0 0.0 0.00 0.00 0.00 85 1015.2
20260510130208 16 113 0.0 0.0 0.00 0.00 0.00 86 1015.3
20260510125704 16 104 0.0 0.0 0.00 0.00 0.00 87 1015.2
20260510125200 16 86 0.0 0.0 0.00 0.00 0.00 85 1015.1
20260510124657 16 86 0.0 0.0 0.00 0.00 0.00 87 1015.2
20260510124154 16 86 0.0 0.0 0.00 0.00 0.00 88 1015.0
20260510123649 16 86 0.0 0.0 0.00 0.00 0.00 88 1015.3
20260510123146 15 86 0.0 0.0 0.00 0.00 0.00 88 1015.2
20260510122642 15 86 0.0 0.0 0.00 0.00 0.00 89 1015.1
20260510122138 15 80 0.0 0.0 0.00 0.00 0.00 89 1015.0
20260510121635 15 80 0.0 0.0 0.00 0.00 0.00 89 1015.0
20260510121132 15 86 0.0 0.0 0.00 0.00 0.00 89 1014.9
20260510120630 15 86 0.0 0.0 0.00 0.00 0.00 89 1014.9
20260510120125 15 86 0.0 0.0 0.00 0.00 0.00 88 1015.0
20260510115622 15 86 0.0 0.0 0.00 0.00 0.00 89 1014.9
20260510115120 15 86 0.0 0.0 0.00 0.00 0.00 89 1015.1
20260510114615 15 83 0.0 0.0 0.00 0.00 0.00 89 1015.0
20260510114112 15 81 0.0 0.0 0.00 0.00 0.00 88 1015.1
20260510113607 15 75 0.0 0.0 0.00 0.00 0.00 89 1014.9
20260510113105 15 101 0.0 0.0 0.00 0.00 0.00 89 1014.7
20260510112601 15 102 0.0 0.0 0.00 0.00 0.00 88 1014.6
20260510112058 14 102 0.0 0.0 0.00 0.00 0.00 88 1014.7
20260510111554 14 324 0.0 0.0 0.00 0.00 0.00 88 1014.7
20260510111050 15 324 0.0 0.0 0.00 0.00 0.00 88 1014.9
20260510110546 15 324 0.0 0.0 0.00 0.00 0.00 88 1014.7
20260510110043 15 53 0.0 0.0 0.00 0.00 0.00 88 1014.5
20260510105538 15 78 0.0 0.0 0.00 0.00 0.00 89 1014.1
20260510105033 15 78 0.0 0.0 0.00 0.00 0.00 89 1013.9
20260510104530 15 86 0.0 0.0 0.00 0.00 0.00 89 1013.8
20260510104026 15 86 0.0 0.0 0.00 0.00 0.00 88 1013.7
20260510103524 15 86 0.0 0.0 0.00 0.00 0.00 87 1013.8
20260510103020 15 86 0.0 0.0 0.00 0.00 0.00 87 1013.5
20260510102516 15 86 0.0 0.0 0.00 0.00 0.00 87 1013.5
20260510102012 15 86 0.0 0.0 0.00 0.00 0.00 87 1013.4
20260510101509 15 86 0.0 0.0 0.00 0.00 0.00 86 1013.2
20260510101009 15 86 0.0 0.0 0.00 0.00 0.00 87 1013.5
20260510100504 15 82 0.0 0.0 0.00 0.00 0.00 88 1013.4
20260510100001 16 82 0.0 0.0 0.00 0.00 0.00 87 1013.3
20260510095456 16 82 0.0 0.0 0.00 0.00 0.00 87 1013.4
20260510094955 16 82 0.0 0.0 0.00 0.00 0.00 87 1013.4
20260510094451 16 82 0.0 0.0 0.00 0.00 0.00 87 1013.4
20260510093947 16 82 0.0 0.0 0.00 0.00 0.00 87 1013.2
20260510093442 15 82 0.0 0.0 0.00 0.00 0.00 86 1013.1
20260510092939 15 82 0.0 0.0 0.00 0.00 0.00 87 1013.1
20260510092437 15 82 0.0 0.0 0.00 0.00 0.00 86 1013.3
20260510091936 15 82 0.0 0.0 0.00 0.00 0.00 86 1013.4
20260510091433 15 70 0.0 0.0 0.00 0.00 0.00 87 1013.2
20260510090930 15 70 0.0 0.0 0.00 0.00 0.00 87 1013.0
20260510090426 15 70 0.0 0.0 0.00 0.00 0.00 86 1013.1
20260510085922 16 76 0.0 0.0 0.00 0.00 0.00 86 1013.4
20260510085418 16 91 0.0 0.0 0.00 0.00 0.00 84 1013.4
20260510084913 15 91 0.0 0.0 0.00 0.00 0.00 84 1013.4
20260510084411 15 91 0.0 0.0 0.00 0.00 0.00 84 1013.3
20260510083907 15 83 0.0 0.0 0.00 0.00 0.00 83 1013.4
20260510083404 15 83 0.0 0.0 0.00 0.00 0.00 84 1013.4
20260510082859 15 83 0.0 0.0 0.00 0.00 0.00 85 1013.2
20260510082357 15 83 0.0 0.0 0.00 0.00 0.00 85 1013.2
20260510081855 15 83 0.0 0.0 0.00 0.00 0.00 85 1013.1
20260510081351 15 83 0.0 0.0 0.00 0.00 0.00 84 1013.3
20260510080849 15 83 0.0 0.0 0.00 0.00 0.00 84 1013.2
20260510080342 15 83 0.0 0.0 0.00 0.00 0.00 84 1013.2
20260510075839 15 83 0.0 0.0 0.00 0.00 0.00 84 1013.0
20260510075337 15 83 0.0 0.0 0.00 0.00 0.00 84 1012.9
20260510074834 15 83 0.0 0.0 0.00 0.00 0.00 85 1012.9
20260510074331 15 83 0.0 0.0 0.00 0.00 0.00 85 1012.9
20260510073827 15 83 0.0 0.0 0.00 0.00 0.00 85 1012.8
20260510073323 16 112 0.0 0.0 0.00 0.00 0.00 83 1013.0
20260510072819 16 112 0.0 0.0 0.00 0.00 0.00 82 1012.8
20260510072316 16 112 0.0 0.0 0.00 0.00 0.00 81 1012.5
20260510071812 16 112 0.0 0.0 0.00 0.00 0.00 80 1012.7
20260510071303 16 112 0.0 0.0 0.00 0.00 0.00 81 1012.8
20260510070803 16 112 0.0 0.0 0.00 0.00 0.00 81 1012.9
20260510070259 16 112 0.0 0.0 0.00 0.00 0.00 81 1012.9
20260510065759 16 112 0.0 0.0 0.00 0.00 0.00 80 1013.0
20260510065255 16 112 0.0 0.0 0.00 0.00 0.00 79 1013.2
20260510064752 16 112 0.0 0.0 0.00 0.00 0.00 78 1013.1
20260510064250 16 112 0.0 0.0 0.00 0.00 0.00 78 1012.9
20260510063746 16 112 0.0 0.0 0.00 0.00 0.00 77 1013.0
20260510063242 16 112 0.0 0.0 0.00 0.00 0.00 75 1012.9
20260510062739 16 112 0.0 0.0 0.00 0.00 0.00 75 1013.0
20260510062235 16 112 0.0 0.0 0.00 0.00 0.00 76 1013.1
20260510061730 16 112 0.0 0.0 0.00 0.00 0.00 76 1013.1
20260510061228 16 125 0.0 0.0 0.00 0.00 0.00 76 1013.3
20260510060724 16 125 0.0 0.0 0.00 0.00 0.00 77 1013.2
20260510060221 16 91 0.0 0.0 0.00 0.00 0.00 78 1013.2
20260510055717 16 103 0.0 0.0 0.00 0.00 0.00 77 1013.4
20260510055216 16 69 0.0 0.0 0.00 0.00 0.00 77 1013.5
20260510054715 16 74 0.0 0.0 0.00 0.00 0.00 79 1013.7
20260510054211 16 68 0.0 0.0 0.00 0.00 0.00 78 1013.4
20260510053706 16 94 0.0 0.0 0.00 0.00 0.00 77 1013.4
20260510053203 16 94 0.0 0.0 0.00 0.00 0.00 78 1013.5
20260510052658 16 95 0.0 0.0 0.00 0.00 0.00 77 1013.2
20260510052154 16 95 0.0 0.0 0.00 0.00 0.00 77 1013.0
20260510051650 16 95 0.0 0.0 0.00 0.00 0.00 76 1013.0
20260510051147 16 95 0.0 0.0 0.00 0.00 0.00 76 1012.9
20260510050644 16 95 0.0 0.0 0.00 0.00 0.00 76 1012.9
20260510050142 16 95 0.0 0.0 0.00 0.00 0.00 75 1013.0
20260510045638 16 95 0.0 0.0 0.00 0.00 0.00 76 1013.1
20260510045135 16 95 0.0 0.0 0.00 0.00 0.00 75 1012.8
20260510044631 16 95 0.0 0.0 0.00 0.00 0.00 72 1012.6
20260510044129 16 95 0.0 0.0 0.00 0.00 0.00 74 1012.7
20260510043624 16 95 0.0 0.0 0.00 0.00 0.00 73 1012.7
20260510043121 17 95 0.0 0.0 0.00 0.00 0.00 71 1012.7
20260510042619 17 95 0.0 0.0 0.00 0.00 0.00 71 1012.5
20260510042114 17 95 0.0 0.0 0.00 0.00 0.00 69 1012.4
20260510041612 17 95 0.0 0.0 0.00 0.00 0.00 68 1012.3
20260510041109 17 95 0.0 0.0 0.00 0.00 0.00 66 1012.2
20260510040606 17 93 0.0 0.0 0.00 0.00 0.00 68 1012.5
20260510035558 17 93 0.0 0.0 0.00 0.00 0.00 66 1012.3
20260510035057 17 93 0.0 0.0 0.00 0.00 0.00 64 1012.3
20260510034556 18 93 0.0 0.0 0.00 0.00 0.00 64 1012.4
20260510034052 17 93 0.0 0.0 0.00 0.00 0.00 68 1012.3
20260510033549 17 93 0.0 0.0 0.00 0.00 0.00 63 1012.4
20260510033047 17 106 0.0 0.0 0.00 0.00 0.00 65 1012.2
20260510032543 17 112 0.0 0.0 0.00 0.00 0.00 65 1012.2
20260510032038 17 93 0.0 0.0 0.00 0.00 0.00 66 1012.3
20260510031533 16 98 0.0 0.0 0.00 0.00 0.00 66 1012.1
20260510031029 16 102 0.0 0.0 0.00 0.00 0.00 68 1012.2
20260510030525 17 102 0.0 0.0 0.00 0.00 0.00 67 1012.1
20260510030022 17 102 0.0 0.0 0.00 0.00 0.00 65 1011.9
20260510025519 17 102 0.0 0.0 0.00 0.00 0.00 64 1011.8
20260510025017 17 102 0.0 0.0 0.00 0.00 0.00 64 1011.8
20260510024514 17 102 0.0 0.0 0.00 0.00 0.00 62 1011.6
20260510024010 17 102 0.0 0.0 0.00 0.00 0.00 62 1011.5
20260510023506 17 102 0.0 0.0 0.00 0.00 0.00 61 1011.3
20260510023003 18 102 0.0 0.0 0.00 0.00 0.00 64 1011.3
20260510022502 18 101 0.0 0.0 0.00 0.00 0.00 63 1011.1
20260510022002 18 112 0.0 0.0 0.00 0.00 0.00 61 1011.2
20260510021459 18 111 0.0 0.0 0.00 0.00 0.00 59 1011.2
20260510020956 18 111 0.0 0.0 0.00 0.00 0.00 63 1011.1
20260510020450 18 111 0.0 0.0 0.00 0.00 0.00 61 1010.9
20260510015946 18 111 0.0 0.0 0.00 0.00 0.00 62 1010.9
20260510015442 18 111 0.0 0.0 0.00 0.00 0.00 62 1010.8
20260510014937 18 110 0.0 0.0 0.00 0.00 0.00 60 1010.7
20260510014435 18 110 0.0 0.0 0.00 0.00 0.00 63 1010.6
20260510013931 18 110 0.0 0.0 0.00 0.00 0.00 60 1010.7
20260510013426 19 110 0.0 0.0 0.00 0.00 0.00 60 1010.5
20260510012922 19 112 0.0 0.0 0.00 0.00 0.00 60 1010.4
20260510012417 20 118 0.0 0.0 0.00 0.00 0.00 58 1010.5
20260510011912 20 114 0.0 0.0 0.00 0.00 0.00 57 1010.5
20260510011407 20 132 0.0 0.0 0.00 0.00 0.00 59 1010.5
20260510010904 20 100 0.0 0.0 0.00 0.00 0.00 57 1010.5
20260510010401 20 96 0.0 0.0 0.00 0.00 0.00 57 1010.4
20260510005858 21 96 0.0 0.0 0.00 0.00 0.00 57 1010.5
20260510005354 21 115 0.0 0.0 0.00 0.00 0.00 55 1010.4
20260510004851 21 115 0.0 0.0 0.00 0.00 0.00 53 1010.4
20260510004349 22 115 0.0 0.0 0.00 0.00 0.00 54 1010.3
20260510003847 22 125 0.0 0.0 0.00 0.00 0.00 52 1010.2
20260510003343 22 111 0.0 0.0 0.00 0.00 0.00 52 1010.0
20260510002842 22 118 0.0 0.0 0.00 0.00 0.00 52 1009.9
20260510002339 23 107 0.0 0.0 0.00 0.00 0.00 51 1010.2
20260510001836 23 110 0.0 0.0 0.00 0.00 0.00 49 1010.0
20260510001334 23 135 0.0 0.0 0.00 0.00 0.00 49 1010.0
20260510000830 24 114 0.0 0.0 0.00 0.00 0.00 46 1010.2
20260510000328 24 119 0.0 0.0 0.00 0.00 0.00 45 1010.1
20260509235824 25 124 0.0 0.0 0.00 0.00 0.00 45 1010.1
20260509235321 25 109 0.0 0.0 0.00 0.00 0.00 44 1010.0
20260509234817 25 150 0.0 1.6 0.00 0.00 0.00 43 1010.1
20260509234313 25 125 0.0 0.0 0.00 0.00 0.00 43 1009.9
20260509233812 26 118 0.0 0.0 0.00 0.00 0.00 41 1010.0
20260509233309 26 128 0.0 0.0 0.00 0.00 0.00 38 1010.0
20260509232805 27 163 0.0 0.0 0.00 0.00 0.00 37 1009.9
20260509232306 28 111 1.6 1.6 0.00 0.00 0.00 36 1010.0
20260509231758 29 112 0.0 0.0 0.00 0.00 0.00 33 1010.2
20260509231255 28 94 0.0 0.0 0.00 0.00 0.00 31 1010.0
20260509230753 28 154 1.6 1.6 0.00 0.00 0.00 29 1010.1
20260509230250 28 122 0.0 0.0 0.00 0.00 0.00 33 1010.1
20260509225745 30 250 1.6 3.2 0.00 0.00 0.00 27 1009.9
20260509225241 29 104 0.0 0.0 0.00 0.00 0.00 29 1010.0
20260509224737 29 113 0.0 0.0 0.00 0.00 0.00 29 1009.9
20260509224235 30 207 1.6 1.6 0.00 0.00 0.00 27 1010.1
20260509223731 29 77 0.0 0.0 0.00 0.00 0.00 28 1009.9
20260509223228 30 116 0.0 0.0 0.00 0.00 0.00 34 1010.0
20260509222725 28 115 0.0 0.0 0.00 0.00 0.00 30 1010.0
20260509222220 30 83 0.0 0.0 0.00 0.00 0.00 28 1010.1
20260509221716 29 91 0.0 0.0 0.00 0.00 0.00 31 1009.9
20260509221213 30 168 1.6 1.6 0.00 0.00 0.00 28 1009.6
20260509220708 30 347 3.2 3.2 0.00 0.00 0.00 29 1009.6
20260509220205 29 59 0.0 0.0 0.00 0.00 0.00 30 1009.5
20260509215701 29 31 1.6 1.6 0.00 0.00 0.00 30 1009.7
20260509215158 30 356 1.6 1.6 0.00 0.00 0.00 30 1009.7
20260509214655 30 243 0.0 1.6 0.00 0.00 0.00 32 1009.7
20260509214152 30 269 0.0 1.6 0.00 0.00 0.00 29 1009.9
20260509213649 30 216 3.2 3.2 0.00 0.00 0.00 26 1009.7
20260509213144 30 86 0.0 0.0 0.00 0.00 0.00 26 1010.0
20260509212642 30 197 1.6 1.6 0.00 0.00 0.00 28 1010.0
20260509212138 30 201 3.2 3.2 0.00 0.00 0.00 29 1009.9
20260509211635 29 94 0.0 0.0 0.00 0.00 0.00 31 1010.1
20260509211132 30 204 1.6 1.6 0.00 0.00 0.00 28 1010.1
20260509210629 30 345 1.6 1.6 0.00 0.00 0.00 30 1010.2
20260509210126 30 180 0.0 0.0 0.00 0.00 0.00 26 1010.2
20260509205620 30 325 3.2 3.2 0.00 0.00 0.00 30 1010.3
20260509205115 30 233 1.6 1.6 0.00 0.00 0.00 29 1010.2
20260509204611 29 213 3.2 3.2 0.00 0.00 0.00 28 1010.2
20260509204108 28 140 1.6 1.6 0.00 0.00 0.00 28 1010.3
20260509203558 30 122 0.0 0.0 0.00 0.00 0.00 30 1010.3
20260509203057 30 168 1.6 1.6 0.00 0.00 0.00 28 1010.2
20260509202551 30 116 0.0 1.6 0.00 0.00 0.00 34 1010.1
20260509202046 29 110 0.0 0.0 0.00 0.00 0.00 32 1010.5
20260509201541 29 96 1.6 1.6 0.00 0.00 0.00 31 1010.4
20260509201039 29 44 0.0 1.6 0.00 0.00 0.00 31 1010.5
20260509200533 29 64 1.6 1.6 0.00 0.00 0.00 34 1010.7
20260509200030 28 113 0.0 0.0 0.00 0.00 0.00 36 1010.7
20260509195526 28 104 0.0 0.0 0.00 0.00 0.00 31 1010.9
20260509195025 28 221 3.2 3.2 0.00 0.00 0.00 29 1010.7
20260509194520 29 145 1.6 3.2 0.00 0.00 0.00 32 1010.8
20260509194018 28 329 1.6 3.2 0.00 0.00 0.00 33 1010.8
20260509193513 28 56 1.6 1.6 0.00 0.00 0.00 34 1010.9
20260509193010 29 57 1.6 1.6 0.00 0.00 0.00 32 1010.8
20260509192506 30 115 0.0 0.0 0.00 0.00 0.00 30 1010.8
20260509192001 28 42 1.6 1.6 0.00 0.00 0.00 31 1010.8
20260509191456 28 43 1.6 1.6 0.00 0.00 0.00 34 1010.9
20260509190952 29 28 1.6 1.6 0.00 0.00 0.00 31 1011.0
20260509190449 28 146 1.6 3.2 0.00 0.00 0.00 30 1011.1
20260509185947 28 126 1.6 1.6 0.00 0.00 0.00 35 1010.9
20260509185444 28 266 3.2 3.2 0.00 0.00 0.00 33 1011.2
20260509184940 28 155 1.6 1.6 0.00 0.00 0.00 33 1011.1
20260509184438 28 77 0.0 1.6 0.00 0.00 0.00 33 1010.9
20260509183934 27 139 1.6 1.6 0.00 0.00 0.00 35 1011.0
20260509183429 29 67 0.0 0.0 0.00 0.00 0.00 32 1011.0
20260509182926 28 86 0.0 0.0 0.00 0.00 0.00 33 1011.2
20260509182422 28 77 0.0 0.0 0.00 0.00 0.00 38 1010.9
20260509181920 28 101 0.0 0.0 0.00 0.00 0.00 33 1011.1
20260509181418 28 77 0.0 0.0 0.00 0.00 0.00 38 1010.9
20260509180915 28 151 3.2 3.2 0.00 0.00 0.00 35 1011.0
20260509180410 28 111 1.6 1.6 0.00 0.00 0.00 32 1011.0
20260509175907 28 156 1.6 1.6 0.00 0.00 0.00 33 1011.0
20260509175403 27 28 1.6 1.6 0.00 0.00 0.00 32 1011.0
20260509174900 27 313 1.6 1.6 0.00 0.00 0.00 45 1010.9
20260509174356 27 78 0.0 0.0 0.00 0.00 0.00 43 1010.9
20260509173852 27 72 1.6 1.6 0.00 0.00 0.00 39 1011.0
20260509173351 27 79 0.0 0.0 0.00 0.00 0.00 40 1011.0
20260509172848 27 339 0.0 1.6 0.00 0.00 0.00 41 1011.3
20260509172345 26 115 1.6 1.6 0.00 0.00 0.00 48 1011.1
20260509171841 27 250 4.8 6.4 0.00 0.00 0.00 43 1011.3
20260509171337 27 236 1.6 1.6 0.00 0.00 0.00 44 1011.3
20260509170833 27 57 0.0 1.6 0.00 0.00 0.00 48 1011.4
20260509170329 26 79 0.0 0.0 0.00 0.00 0.00 55 1011.3
20260509165824 25 111 1.6 1.6 0.00 0.00 0.00 52 1011.4
20260509165318 26 85 0.0 0.0 0.00 0.00 0.00 51 1011.5
20260509164815 26 83 0.0 0.0 0.00 0.00 0.00 54 1011.4
20260509164311 25 170 0.0 1.6 0.00 0.00 0.00 54 1011.4
20260509163807 26 181 3.2 3.2 0.00 0.00 0.00 53 1011.4
20260509163305 26 97 0.0 0.0 0.00 0.00 0.00 54 1011.4
20260509162804 25 47 0.0 1.6 0.00 0.00 0.00 55 1011.4
20260509162306 25 73 0.0 1.6 0.00 0.00 0.00 56 1011.5
20260509161759 25 26 0.0 0.0 0.00 0.00 0.00 56 1011.4
20260509161255 25 62 0.0 0.0 0.00 0.00 0.00 53 1011.4
20260509160750 25 77 0.0 0.0 0.00 0.00 0.00 56 1011.5
20260509160247 25 351 1.6 1.6 0.00 0.00 0.00 58 1011.5
20260509155742 24 55 0.0 0.0 0.00 0.00 0.00 56 1011.3
20260509155239 23 83 0.0 0.0 0.00 0.00 0.00 59 1011.4
20260509154735 23 64 1.6 3.2 0.00 0.00 0.00 60 1011.3
20260509154232 23 77 0.0 0.0 0.00 0.00 0.00 59 1011.4
20260509153729 23 100 1.6 1.6 0.00 0.00 0.00 62 1011.2
20260509153225 23 26 1.6 1.6 0.00 0.00 0.00 62 1011.4
20260509152722 22 79 0.0 1.6 0.00 0.00 0.00 62 1011.2
20260509152218 22 28 3.2 4.8 0.00 0.00 0.00 63 1011.2
20260509151715 22 67 1.6 1.6 0.00 0.00 0.00 65 1011.2
20260509151212 22 102 0.0 0.0 0.00 0.00 0.00 64 1011.2
20260509150710 21 118 0.0 1.6 0.00 0.00 0.00 67 1011.3
20260509150208 21 66 0.0 0.0 0.00 0.00 0.00 68 1011.3
20260509145704 21 18 1.6 3.2 0.00 0.00 0.00 69 1011.3
20260509145159 20 169 0.0 0.0 0.00 0.00 0.00 72 1011.5
20260509144656 20 328 1.6 3.2 0.00 0.00 0.00 72 1011.4
20260509144153 20 85 1.6 1.6 0.00 0.00 0.00 74 1011.3
20260509143650 19 73 0.0 0.0 0.00 0.00 0.00 75 1011.3
20260509143148 19 35 3.2 4.8 0.00 0.00 0.00 75 1011.3